BEIDOU-3 M13

Last updated on Mon Jun 22 2026 00:02:55 GMT+0000 (Coordinated Universal Time)

1 43622U 18072A 26172.29454427 -.00000081 00000+0 00000+0 0 9998 2 43622 56.6282 62.5240 0007137 330.1286 29.8688 1.86231065 52738
UTC large
Height (km)
Speed (km/s)
/
Latitude / Longitude
Inclination (degrees)
Orbital Period (minutes)
Azimuth
Elevation
Range (km)
Doppler Factor

Next 0 passes for location: London (51.5072 / 0.1276)

No passes found over London.
BEIDOU-3 M13